Tracking 22287 objects as of 27-Jan-2021
HD Live streaming from Space Station
objects crossing your sky now

STARLINK-1407

Track STARLINK-1407 now!
10-day predictions
STARLINK-1407 is classified as:


NORAD ID: 45703
Int'l Code: 2020-035AY
Perigee: 553.5 km
Apogee: 555.2 km
Inclination: 53.0 °
Period: 95.6 minutes
Semi major axis: 6925 km
RCS: Unknown
Launch date: June 4, 2020
Source: United States (US)
Launch site: AIR FORCE EASTERN TEST RANGE (AFETR)
aabbcc
Your satellite tracking list
Your tracking list is empty




NASA's NSSDC Master Catalog

Two Line Element Set (TLE):
1 45703U 20035AY  21027.51775784 -.00000614  00000-0 -22342-4 0  9995
2 45703  53.0295 138.6515 0001199  88.7772 271.3354 15.06400785 37723
Source of the keplerian elements: AFSPC